Temperature
24 22 22 21 20 20 20 20 19 19 19 19 18 18 18 18 18 18 18 18 18 18 18 18 18 18 17 17 17 17 17 17 17 17 18 18 18 18 17 17 17 18 17
24 23 22 21 20 20 20 20 20 20 19 19 19 18 18 18 18 18 18 18 18 18 18 18 18 18 18 17 17 17 17 18 17 18 18 19 19 18 18 18 17 17 17
25 23 22 22 21 21 20 20 20 20 20 19 19 18 18 18 18 18 18 18 18 18 18 18 18 18 18 18 18 17 17 17 17 17 18 18 19 19 18 18 18 17 17
25 24 23 22 21 21 21 21 21 20 20 20 19 18 18 19 18 18 18 18 18 18 18 18 18 18 18 18 18 17 17 17 17 17 17 17 17 18 18 18 18 17 17
26 24 23 23 22 22 21 21 21 21 20 20 19 19 19 19 18 18 18 18 18 18 18 18 18 18 18 18 18 18 17 17 17 17 17 17 17 17 17 18 17 17 17
26 25 24 23 22 22 21 21 21 21 21 20 20 20 19 19 19 18 18 18 18 18 18 18 18 18 18 18 18 18 17 17 17 17 17 17 17 17 17 17 17 17 17
26 25 24 23 22 22 22 21 21 21 21 20 20 20 19 19 19 19 18 18 18 18 18 18 18 18 18 18 18 18 17 17 17 17 17 17 17 17 17 17 17 16 16
26 25 24 23 23 22 22 21 22 22 21 21 20 20 20 19 19 19 19 18 18 18 18 18 18 18 18 18 17 17 17 17 17 17 17 17 17 17 16 16 16 16 16
26 25 25 24 23 23 22 22 21 21 21 21 20 20 20 19 19 19 19 18 18 18 18 18 18 18 18 18 17 17 17 17 17 17 17 17 16 16 16 16 16 16 16
26 25 24 24 23 22 22 21 21 21 21 21 20 20 20 19 19 19 18 18 18 18 18 18 18 18 18 17 17 17 17 17 17 17 16 16 16 16 16 16 16 16 15
25 25 24 23 22 22 22 21 21 20 20 20 20 20 19 19 19 19 18 18 18 18 18 18 17 17 17 17 17 17 17 16 16 16 16 16 16 16 16 15 15 15 15
25 24 23 23 22 21 21 21 20 20 20 20 20 20 19 19 19 19 18 18 18 18 18 17 17 17 17 17 17 17 16 16 16 16 16 16 15 15 15 15 15 15 14
24 23 22 22 21 21 21 20 20 20 20 19 19 19 19 19 19 19 18 18 18 18 17 17 17 17 17 16 16 16 16 16 16 16 15 15 15 15 15 15 14 14 14
23 22 22 21 21 20 20 20 20 19 19 19 19 19 19 19 19 18 18 18 17 17 17 17 16 16 16 16 16 16 16 16 15 15 15 15 14 14 14 14 14 14 14
23 22 21 21 21 20 20 20 19 19 19 19 19 19 19 18 18 18 18 17 17 17 16 16 16 16 16 15 15 15 15 15 15 14 14 14 14 14 14 14 13 13 13
23 22 21 21 20 20 20 20 19 19 19 19 19 18 18 18 18 17 17 17 16 16 16 16 16 15 15 15 15 15 15 15 14 14 14 14 14 14 14 13 13 13 13
23 22 21 21 20 20 20 19 19 19 19 18 18 18 18 18 17 17 16 16 16 16 15 15 15 15 15 15 15 15 15 14 14 14 13 13 13 13 13 13 13 13 13
22 22 21 21 20 20 19 19 19 19 18 18 18 18 17 17 17 17 16 16 16 15 15 15 14 14 14 14 14 14 14 14 13 13 13 13 13 13 12 12 12 12 12
22 21 21 21 20 20 19 19 19 18 18 18 17 17 17 17 16 16 16 15 15 15 14 14 14 14 14 14 14 14 13 13 13 13 13 12 12 12 12 12 12 11 11
21 21 21 20 20 20 19 19 18 18 18 17 17 17 16 16 16 16 15 15 15 14 14 13 13 13 13 13 13 13 13 13 12 12 12 12 12 12 12 11 11 11 11
21 21 20 20 20 19 19 18 18 17 17 17 16 16 16 16 15 15 15 14 14 14 13 13 13 13 13 13 13 13 12 12 12 12 11 11 11 12 11 11 11 11 10
20 20 20 19 19 19 18 18 17 17 17 16 16 16 15 15 15 15 14 14 14 13 13 13 12 12 12 12 12 12 12 12 12 11 11 11 11 11 11 11 10 10 10
19 19 19 19 19 18 18 18 17 17 16 16 16 15 15 15 14 14 14 13 13 13 12 12 12 12 12 12 12 12 12 12 11 11 11 11 11 10 10 10 10 10 10
19 19 19 19 18 18 17 17 17 17 16 16 15 15 15 14 14 14 13 13 13 12 12 12 12 12 11 11 11 11 11 11 11 11 10 10 10 10 10 10 9 9 9
18 18 18 18 18 17 17 17 16 16 16 15 15 14 14 14 14 13 13 13 12 12 12 12 12 12 11 11 11 11 11 11 10 10 10 10 10 10 9 9 9 9 9
18 18 17 17 17 17 16 16 16 16 16 15 15 14 14 14 13 13 13 12 12 12 12 12 12 11 11 11 11 11 11 11 10 10 10 10 10 10 10 9 9 9 9
Wind_Speed
11 11 11 11 11 11 11 11 10 10 8 6 6 6 5 5 4 5 6 6 6 5 5 4 3 4 4 4 4 4 5 4 3 4 4 5 5 5 5 5 5 4 5
11 11 12 12 12 12 12 11 11 11 10 7 5 5 4 5 5 5 5 7 6 6 6 5 5 4 4 5 5 5 5 4 3 4 4 4 3 4 4 4 4 4 4
12 13 13 13 13 13 13 12 12 11 11 9 7 5 5 5 5 5 5 6 7 7 6 6 6 5 5 5 5 5 6 5 4 4 4 4 3 2 2 3 3 3 3
13 13 13 13 13 13 13 12 12 11 10 10 9 8 7 6 6 5 4 5 7 7 7 6 6 6 6 5 6 5 5 6 5 4 4 5 4 4 3 3 3 3 3
13 13 14 13 13 13 12 12 11 11 11 10 10 9 8 6 5 5 5 5 5 6 6 6 5 5 5 5 5 5 6 5 5 4 4 4 4 6 5 4 3 2 1
12 12 13 12 12 12 11 11 11 11 10 11 10 9 8 7 6 6 5 5 4 5 6 6 5 5 5 5 6 6 6 5 5 5 5 4 4 4 4 5 5 3 2
11 12 13 13 13 12 12 11 11 11 11 10 9 9 8 8 8 7 6 6 4 4 4 5 5 5 5 5 5 6 6 5 5 5 4 4 5 4 5 5 5 3 2
10 11 12 12 12 13 12 12 11 10 10 10 9 8 8 7 6 7 6 5 5 4 4 5 5 5 5 5 5 5 5 4 4 5 4 4 4 4 4 4 4 3 2
8 10 11 11 11 12 12 12 11 10 9 9 8 7 7 7 6 4 5 4 4 4 4 4 4 4 4 4 4 3 3 3 3 4 4 4 3 3 4 4 4 4 3
6 7 8 9 10 10 10 10 10 9 8 8 7 6 6 6 5 4 4 3 3 3 3 3 3 3 3 3 3 3 2 2 2 2 2 3 3 2 3 3 3 3 3
6 6 7 8 9 9 9 9 9 8 7 7 6 5 5 5 4 4 4 3 3 2 3 2 2 2 2 2 2 2 1 1 1 1 1 1 1 2 2 1 1 1 2
6 7 8 9 8 8 8 8 8 7 7 6 6 5 4 4 4 4 3 3 2 2 2 2 2 2 1 1 2 2 1 1 1 1 0 0 1 1 1 1 0 1 1
7 8 8 8 8 8 7 7 6 6 6 6 6 5 4 4 3 3 3 2 2 2 1 1 2 2 1 1 1 1 1 1 1 1 1 1 1 1 1 1 0 1 1
7 8 8 8 8 7 7 7 6 6 6 6 6 5 4 3 3 3 2 2 2 2 1 1 1 1 1 1 1 2 1 2 2 2 2 2 1 1 1 1 1 2 2
7 7 7 7 7 7 7 6 6 6 6 7 6 5 5 4 4 4 3 3 3 2 3 2 2 2 1 1 1 2 2 2 2 3 3 3 4 5 3 2 2 2 2
7 7 7 7 7 7 7 7 7 7 7 7 6 6 5 5 5 5 5 5 4 4 4 4 3 3 3 5 4 2 3 3 3 4 4 5 5 6 7 8 8 5 3
7 8 8 7 7 7 7 7 7 7 7 7 6 6 6 6 5 5 5 5 5 5 5 4 4 4 5 5 4 3 3 4 4 4 4 4 5 5 5 7 8 9 9
7 7 8 8 7 7 8 8 8 8 8 7 6 6 6 6 6 6 6 6 6 6 5 5 5 5 5 5 4 3 5 5 5 5 5 5 5 5 5 6 7 7 7
7 7 8 9 9 9 9 9 9 9 8 7 6 6 6 6 7 7 6 6 6 6 6 6 6 6 5 6 4 3 6 6 7 7 7 6 7 6 4 6 7 7 7
7 7 8 9 9 9 10 10 9 8 8 7 7 6 6 7 7 7 7 6 6 7 7 7 7 7 6 6 6 3 6 7 6 7 8 11 8 8 6 6 7 7 6
8 9 9 9 9 10 10 9 9 8 8 8 8 7 7 7 8 7 7 7 7 7 7 7 7 7 6 6 7 6 4 5 6 6 7 7 9 10 9 6 6 5 3
9 10 10 9 9 10 10 10 9 9 9 9 9 8 7 7 7 8 7 7 7 8 7 7 6 6 6 7 7 9 8 5 7 6 6 7 9 10 9 7 6 2 1
9 9 10 10 9 9 9 10 10 10 10 10 9 8 8 7 7 7 7 7 5 5 6 6 6 5 5 6 9 9 9 8 7 8 10 9 7 7 8 7 3 2 3
8 8 9 10 9 9 9 10 10 11 10 10 9 8 8 7 7 5 5 5 4 4 5 5 5 6 5 5 5 6 7 8 8 8 9 8 6 6 6 5 3 4 4
8 8 8 9 9 9 9 10 10 11 10 10 9 8 7 8 7 6 5 4 4 3 3 4 4 5 5 4 4 3 4 5 6 6 5 5 5 5 5 4 4 4 3
7 8 8 9 9 9 9 9 10 10 10 9 8 7 7 7 7 7 7 11 9 10 9 7 5 6 8 8 7 8 8 6 2 3 5 4 4 4 4 3 4 3 3
Wind_Direction
190 188 192 195 191 191 191 193 195 190 196 202 206 202 207 216 213 211 207 217 221 215 224 243 218 236 243 249 254 257 249 253 261 265 267 248 237 237 241 245 253 244 240
189 188 192 193 195 194 195 198 200 198 201 204 212 216 223 225 224 223 207 221 223 223 222 230 239 234 243 247 252 255 267 265 252 265 276 264 228 218 228 231 237 251 248
193 189 192 193 195 196 199 202 203 202 206 206 210 212 210 226 222 219 214 221 225 227 234 229 241 244 251 251 253 250 253 263 258 253 267 281 283 295 209 222 235 245 257
198 194 193 193 196 197 197 202 202 205 206 208 217 219 222 229 231 231 224 220 224 231 231 233 239 246 251 250 251 245 251 256 262 253 248 266 291 285 273 230 227 233 248
199 195 195 194 196 197 195 197 200 204 205 211 216 219 228 234 235 235 228 231 222 227 234 235 238 241 248 252 261 262 255 254 256 259 255 253 256 255 269 278 276 256 265
197 193 193 190 193 194 195 195 195 201 203 206 213 220 231 237 241 237 235 230 227 227 230 235 237 242 246 247 252 252 247 252 256 257 259 259 260 262 258 266 275 275 282
195 192 192 190 190 191 193 194 191 197 199 204 211 216 225 232 236 238 233 235 237 233 226 232 235 243 246 247 249 247 252 244 244 248 258 261 260 268 267 267 272 278 280
191 192 194 193 190 188 189 190 192 197 199 204 208 214 217 226 233 231 242 235 242 241 234 229 233 240 247 245 241 245 245 243 243 248 253 262 269 265 263 262 266 269 270
187 191 191 188 186 187 188 190 189 193 199 204 205 212 217 226 234 233 235 243 240 239 232 230 232 238 243 245 239 234 240 240 244 252 247 252 261 258 261 260 253 255 266
169 178 179 176 177 182 182 182 184 190 195 197 203 205 209 212 219 227 227 239 240 236 233 225 228 232 229 226 230 228 230 231 240 256 263 255 262 262 253 256 250 245 243
151 156 160 162 165 168 167 171 177 181 184 190 194 200 199 200 204 213 218 220 224 220 222 220 217 221 216 204 201 214 206 196 205 237 258 264 288 288 289 275 259 202 186
135 141 144 145 149 153 157 161 167 170 173 177 179 181 180 180 186 194 201 201 199 205 206 195 194 203 197 188 188 194 195 192 197 187 144 12 56 50 333 326 304 166 176
128 129 132 137 144 148 151 153 156 158 160 160 161 159 162 165 168 174 180 183 183 186 187 177 172 176 182 181 175 165 168 179 158 113 104 81 78 80 61 38 112 159 166
130 130 134 138 142 145 148 149 148 150 152 150 147 144 149 150 150 150 148 148 149 147 136 132 138 140 145 135 133 129 125 122 107 88 78 66 69 79 112 96 90 111 125
140 141 140 138 141 143 144 144 142 142 143 141 138 137 136 134 138 134 125 115 113 117 112 110 101 98 105 77 87 110 110 114 109 92 85 76 70 54 52 62 75 107 123
154 151 148 144 145 145 143 141 139 139 140 138 135 133 131 127 125 121 112 107 101 96 93 93 92 84 77 57 47 79 101 101 105 100 97 96 87 84 75 64 56 50 76
162 160 158 153 149 143 139 139 141 140 137 134 133 133 131 125 119 116 114 114 108 99 90 85 86 83 66 60 64 66 104 95 86 88 91 87 85 90 92 90 86 67 54
165 160 157 150 146 141 138 137 138 137 136 136 134 132 130 126 123 118 115 110 107 103 97 89 86 85 67 55 69 89 100 91 86 84 84 86 80 70 81 90 85 78 64
160 154 154 149 144 142 141 139 137 136 135 135 135 134 133 129 126 121 114 109 107 103 99 92 88 87 75 51 48 81 99 91 84 79 73 81 86 58 65 93 91 86 83
149 147 145 144 143 143 144 141 136 135 134 133 130 128 128 128 124 120 115 112 109 106 102 93 87 85 81 55 34 29 104 100 96 88 81 70 73 62 51 89 92 88 81
146 145 144 143 143 145 145 140 135 134 131 127 125 122 122 124 122 118 115 115 112 107 102 99 93 84 77 72 45 26 91 105 101 95 88 77 68 65 53 64 83 82 88
145 144 142 140 143 148 146 139 135 131 128 125 122 119 120 121 122 118 115 115 117 116 112 107 101 94 85 70 64 53 49 52 96 93 94 93 85 78 67 69 66 59 79
144 144 142 140 143 149 148 141 137 134 132 128 123 121 120 116 118 121 123 126 128 127 124 123 117 109 102 91 81 75 67 56 84 89 90 101 112 116 94 81 66 75 84
145 146 145 145 144 146 144 139 139 140 137 132 127 126 124 120 113 114 120 123 126 126 124 123 121 117 114 111 111 111 108 107 105 107 113 117 100 101 100 113 95 75 65
144 148 150 148 146 144 141 140 142 142 138 135 134 133 128 121 114 100 74 96 87 87 113 122 124 128 127 97 67 103 120 122 117 129 129 120 114 105 97 91 83 83 85
145 148 148 146 143 143 142 143 147 147 145 145 146 144 140 135 133 125 103 55 62 66 59 51 67 91 92 104 95 84 82 86 125 157 121 114 108 103 101 99 97 89 77
Height
1553 1555 1557 1560 1562 1563 1565 1566 1568 1570 1571 1573 1575 1576 1577 1578 1579 1579 1580 1580 1581 1582 1582 1583 1583 1583 1584 1584 1584 1584 1584 1584 1584 1584 1584 1583 1583 1582 1582 1581 1581 1581 1580
1550 1553 1555 1557 1559 1561 1562 1564 1566 1568 1570 1572 1573 1574 1576 1577 1577 1578 1578 1579 1579 1580 1581 1580 1581 1581 1581 1581 1582 1582 1582 1583 1582 1582 1582 1581 1582 1580 1579 1579 1579 1579 1578
1546 1549 1551 1554 1556 1558 1560 1562 1564 1566 1568 1569 1571 1572 1573 1574 1575 1576 1576 1577 1577 1578 1578 1578 1579 1579 1579 1579 1579 1579 1579 1580 1580 1580 1581 1580 1579 1578 1578 1577 1577 1576 1576
1542 1545 1548 1550 1552 1555 1557 1559 1562 1564 1565 1567 1569 1570 1571 1572 1573 1574 1575 1575 1575 1575 1575 1576 1576 1576 1576 1576 1576 1577 1577 1577 1578 1578 1577 1578 1577 1577 1576 1576 1575 1574 1573
1538 1541 1544 1546 1549 1552 1555 1557 1559 1561 1562 1564 1565 1567 1568 1570 1571 1571 1572 1572 1573 1572 1573 1573 1573 1573 1573 1573 1573 1574 1574 1574 1575 1575 1575 1574 1574 1574 1574 1573 1573 1572 1571
1534 1537 1541 1544 1546 1549 1552 1553 1555 1557 1559 1561 1563 1564 1566 1567 1568 1568 1569 1569 1570 1570 1570 1570 1570 1570 1570 1570 1570 1570 1570 1571 1571 1571 1571 1571 1571 1571 1571 1570 1569 1569 1568
1530 1534 1537 1540 1543 1545 1548 1550 1552 1554 1556 1558 1560 1561 1562 1564 1564 1565 1566 1566 1567 1567 1567 1567 1566 1567 1567 1567 1567 1567 1567 1567 1567 1567 1568 1568 1568 1567 1567 1566 1566 1566 1566
1527 1530 1533 1536 1539 1542 1545 1547 1549 1551 1554 1555 1557 1558 1560 1561 1562 1562 1563 1563 1564 1564 1564 1563 1563 1563 1564 1564 1563 1563 1564 1564 1564 1564 1564 1564 1564 1563 1563 1563 1563 1563 1563
1524 1527 1530 1533 1537 1539 1542 1544 1546 1548 1551 1553 1554 1555 1557 1558 1559 1559 1560 1560 1561 1561 1561 1561 1561 1561 1561 1561 1561 1561 1560 1561 1561 1561 1560 1560 1560 1560 1560 1560 1560 1561 1561
1523 1525 1528 1531 1534 1537 1540 1542 1544 1546 1548 1550 1552 1553 1554 1555 1556 1557 1557 1558 1558 1558 1558 1558 1558 1558 1559 1559 1558 1558 1558 1558 1557 1557 1557 1557 1557 1557 1557 1557 1557 1558 1558
1522 1524 1526 1529 1532 1535 1538 1540 1542 1544 1546 1548 1549 1551 1552 1553 1554 1554 1555 1555 1555 1555 1555 1555 1556 1556 1556 1556 1556 1556 1556 1555 1555 1555 1555 1555 1554 1554 1555 1555 1555 1555 1556
1522 1524 1526 1528 1531 1534 1536 1538 1541 1543 1544 1546 1548 1549 1550 1551 1551 1552 1552 1552 1552 1553 1553 1553 1553 1554 1554 1554 1554 1554 1554 1553 1553 1553 1553 1553 1553 1553 1553 1553 1553 1554 1554
1522 1524 1526 1528 1530 1533 1535 1537 1539 1541 1543 1545 1546 1547 1548 1548 1549 1549 1550 1550 1550 1550 1551 1551 1551 1552 1552 1552 1552 1552 1552 1552 1552 1552 1552 1551 1551 1551 1551 1551 1552 1552 1553
1522 1524 1526 1528 1530 1532 1534 1536 1538 1540 1542 1543 1544 1545 1546 1546 1547 1547 1548 1548 1549 1549 1549 1549 1549 1550 1550 1550 1550 1550 1550 1550 1550 1550 1550 1550 1550 1550 1550 1550 1551 1551 1552
1521 1523 1525 1527 1529 1531 1533 1535 1537 1538 1540 1541 1542 1543 1543 1544 1545 1545 1546 1546 1547 1547 1548 1548 1548 1548 1549 1549 1549 1549 1549 1549 1549 1549 1549 1549 1549 1549 1550 1550 1550 1551 1551
1521 1523 1524 1526 1528 1530 1532 1534 1535 1537 1539 1540 1541 1541 1542 1542 1543 1543 1544 1545 1546 1546 1546 1546 1547 1547 1547 1547 1547 1547 1547 1548 1548 1548 1548 1549 1549 1549 1550 1550 1550 1550 1551
1520 1521 1523 1525 1527 1529 1531 1532 1534 1536 1537 1538 1539 1540 1541 1541 1542 1542 1543 1544 1544 1545 1545 1546 1546 1546 1546 1546 1547 1547 1547 1547 1547 1547 1548 1549 1549 1549 1550 1550 1550 1550 1550
1519 1521 1523 1524 1527 1529 1530 1532 1533 1534 1536 1537 1538 1538 1539 1540 1541 1541 1542 1543 1544 1544 1545 1545 1545 1545 1546 1546 1546 1546 1546 1546 1546 1547 1547 1547 1548 1549 1549 1550 1550 1550 1550
1517 1519 1521 1523 1525 1527 1529 1531 1532 1533 1535 1536 1536 1537 1539 1539 1540 1541 1542 1542 1543 1544 1545 1545 1546 1546 1546 1547 1547 1547 1547 1546 1547 1547 1547 1547 1548 1549 1549 1550 1550 1551 1551
1515 1517 1520 1522 1524 1526 1528 1530 1531 1533 1534 1535 1536 1537 1538 1539 1540 1541 1542 1543 1544 1545 1546 1546 1547 1547 1547 1547 1547 1548 1548 1548 1548 1548 1548 1548 1548 1549 1550 1550 1551 1551 1551
1514 1516 1518 1521 1523 1525 1527 1529 1531 1532 1533 1534 1535 1537 1538 1539 1540 1541 1542 1543 1545 1546 1546 1547 1548 1548 1548 1548 1549 1549 1549 1549 1550 1550 1550 1550 1550 1550 1550 1551 1551 1552 1552
1512 1515 1517 1520 1522 1524 1527 1528 1530 1531 1533 1534 1535 1537 1538 1540 1541 1542 1543 1544 1545 1546 1547 1548 1549 1549 1549 1550 1550 1550 1550 1550 1551 1551 1551 1551 1552 1552 1552 1552 1553 1553 1554
1511 1514 1516 1518 1521 1523 1525 1527 1529 1531 1532 1534 1536 1537 1539 1540 1542 1543 1544 1545 1546 1548 1549 1549 1550 1550 1550 1551 1551 1551 1551 1551 1552 1552 1552 1553 1553 1554 1554 1554 1554 1555 1556
1510 1513 1515 1517 1520 1522 1525 1526 1528 1530 1532 1534 1536 1537 1539 1540 1542 1543 1545 1546 1547 1548 1549 1550 1551 1551 1551 1552 1552 1552 1552 1553 1553 1554 1554 1555 1555 1556 1556 1556 1557 1557 1557
1509 1511 1514 1516 1519 1521 1523 1525 1527 1530 1532 1534 1536 1538 1539 1541 1542 1543 1545 1546 1547 1549 1550 1551 1551 1552 1552 1553 1553 1553 1554 1555 1555 1556 1556 1557 1558 1558 1558 1558 1558 1558 1558
1508 1510 1513 1516 1518 1520 1522 1524 1526 1529 1531 1533 1535 1537 1539 1541 1542 1543 1545 1546 1547 1548 1550 1550 1551 1552 1553 1553 1554 1554 1555 1555 1556 1557 1558 1559 1559 1560 1560 1560 1559 1559 1559